Torna al catalogo

STARLINK-37962

AttivoComunicazioniSSO
NORAD 69693·PAYLOAD·🇺🇸 United States

Lanciato Jun 25, 2026 da Vandenberg Space Force Base

Loading…

Prossimi Passaggi (prossime 24 ore)

TLE

AggiornatoSource: CelesTrak SupGP

Epoca: Sep 14, 2026, 16:04 UTC

1 69693C 26145S   26257.66993056 -.00049511  00000+0 -15363-2 0  2575
2 69693  97.2844 104.4751 0001453  84.3434 265.9689 15.33477468    14

Traccia STARLINK-37962 in tempo reale con AllMySat

Download on the App Store